Tracking 19846 objects as of 18-Sep-2019
HD Live streaming from Space Station
objects crossing your sky now

ABS-1A (KOREASAT 2)

Track ABS-1A (KOREASAT 2) now!
ABS-1A (KOREASAT 2) is classified as:


NORAD ID: 23768
Int'l Code: 1996-003A
Perigee: 35,924.4 km
Apogee: 35,935.1 km
Inclination: 9.3 °
Period: 1,443.1 minutes
Semi major axis: 42300 km
RCS: 25.1188 m2 (large)
Launch date: January 14, 1996
Source: South Korea (SKOR)
Launch site: AIR FORCE EASTERN TEST RANGE (AFETR)

Korean peninsula; 15 Ku-band transponders.
aabbcc
Your satellite tracking list
Your tracking list is empty




NASA's NSSDC Master Catalog

Two Line Element Set (TLE):
1 23768U 96003A   19261.46444890 -.00000019  00000-0  00000+0 0  9992
2 23768   9.3321  41.3817 0001275  72.4806 302.8306  0.99788596 86627
Source of the keplerian elements: AFSPC